TimeCDT,TemperatureF,Dew PointF,Humidity,Sea Level PressureIn,VisibilityMPH,Wind Direction,Wind SpeedMPH,Gust SpeedMPH,PrecipitationIn,Events,Conditions,WindDirDegrees,DateUTC
12:35 AM,72.0,65.5,80,30.13,10.0,Calm,Calm,-,N/A,,Overcast,0,2013-09-12 05:35:00
12:55 AM,71.8,65.3,80,30.13,10.0,WNW,3.5,-,N/A,,Overcast,300,2013-09-12 05:55:00
1:15 AM,71.6,65.3,80,30.13,10.0,Calm,Calm,-,N/A,,Scattered Clouds,0,2013-09-12 06:15:00
1:35 AM,71.6,64.8,79,30.13,10.0,Calm,Calm,-,N/A,,Clear,0,2013-09-12 06:35:00
1:55 AM,70.0,65.5,86,30.14,10.0,Calm,Calm,-,N/A,,Clear,0,2013-09-12 06:55:00
2:15 AM,69.8,65.3,86,30.14,10.0,Calm,Calm,-,N/A,,Clear,0,2013-09-12 07:15:00
2:35 AM,68.9,65.7,89,30.14,10.0,Calm,Calm,-,N/A,,Clear,0,2013-09-12 07:35:00
2:55 AM,68.5,65.7,90,30.14,10.0,West,3.5,-,N/A,,Clear,260,2013-09-12 07:55:00
3:15 AM,68.0,64.9,90,30.14,10.0,WSW,5.8,-,N/A,,Clear,250,2013-09-12 08:15:00
3:35 AM,67.5,64.4,90,30.14,10.0,WSW,3.5,-,N/A,,Clear,240,2013-09-12 08:35:00
3:55 AM,68.0,65.1,90,30.14,10.0,Calm,Calm,-,N/A,,Clear,0,2013-09-12 08:55:00
4:15 AM,66.9,64.2,91,30.14,10.0,NNW,8.1,-,N/A,,Clear,330,2013-09-12 09:15:00
4:35 AM,67.5,63.7,88,30.14,10.0,North,6.9,-,N/A,,Clear,350,2013-09-12 09:35:00
4:55 AM,66.6,63.1,89,30.15,10.0,North,6.9,-,N/A,,Clear,360,2013-09-12 09:55:00
5:15 AM,66.7,62.4,86,30.16,10.0,NNE,11.5,-,N/A,,Clear,20,2013-09-12 10:15:00
5:35 AM,66.4,61.0,83,30.16,10.0,NNE,6.9,-,N/A,,Clear,30,2013-09-12 10:35:00
5:55 AM,65.7,60.1,82,30.16,10.0,NNE,6.9,-,N/A,,Clear,30,2013-09-12 10:55:00
6:15 AM,65.3,59.2,81,30.16,10.0,NNE,8.1,-,N/A,,Clear,30,2013-09-12 11:15:00
6:35 AM,64.8,58.1,79,30.17,10.0,NNE,9.2,-,N/A,,Clear,30,2013-09-12 11:35:00
6:55 AM,64.2,57.9,80,30.17,10.0,NNE,6.9,-,N/A,,Clear,20,2013-09-12 11:55:00
7:15 AM,63.5,56.8,79,30.18,10.0,North,8.1,-,N/A,,Clear,10,2013-09-12 12:15:00
7:35 AM,63.0,56.5,79,30.19,10.0,North,8.1,-,N/A,,Clear,10,2013-09-12 12:35:00
7:55 AM,63.9,55.4,74,30.19,10.0,NNE,8.1,-,N/A,,Clear,20,2013-09-12 12:55:00
8:15 AM,64.6,54.9,71,30.20,10.0,NNE,9.2,-,N/A,,Clear,20,2013-09-12 13:15:00
8:35 AM,65.8,54.0,65,30.20,10.0,NNE,10.4,-,N/A,,Clear,20,2013-09-12 13:35:00
8:55 AM,67.1,53.2,61,30.20,10.0,NNE,8.1,-,N/A,,Clear,20,2013-09-12 13:55:00
9:15 AM,67.6,53.1,59,30.21,10.0,NNE,8.1,-,N/A,,Clear,30,2013-09-12 14:15:00
9:35 AM,68.0,53.8,60,30.21,10.0,NNE,10.4,-,N/A,,Clear,30,2013-09-12 14:35:00
9:55 AM,68.9,53.4,58,30.23,10.0,NNE,10.4,-,N/A,,Clear,30,2013-09-12 14:55:00
10:15 AM,70.0,53.6,56,30.23,10.0,NNE,9.2,-,N/A,,Clear,20,2013-09-12 15:15:00
10:35 AM,70.7,52.5,52,30.24,10.0,NE,9.2,-,N/A,,Clear,50,2013-09-12 15:35:00
10:55 AM,72.1,52.3,50,30.24,10.0,ENE,10.4,-,N/A,,Clear,60,2013-09-12 15:55:00
11:15 AM,72.0,52.7,51,30.25,10.0,NNE,12.7,-,N/A,,Clear,20,2013-09-12 16:15:00
11:35 AM,72.7,51.6,47,30.25,10.0,NE,13.8,19.6,N/A,,Clear,40,2013-09-12 16:35:00
11:55 AM,72.9,52.5,49,30.25,10.0,NE,11.5,-,N/A,,Clear,40,2013-09-12 16:55:00
12:15 PM,73.9,53.8,49,30.25,10.0,NE,6.9,16.1,N/A,,Clear,40,2013-09-12 17:15:00
12:35 PM,74.3,50.0,42,30.24,10.0,NNE,10.4,19.6,N/A,,Clear,20,2013-09-12 17:35:00
12:55 PM,75.7,49.6,40,30.24,10.0,North,12.7,18.4,N/A,,Clear,10,2013-09-12 17:55:00
1:15 PM,76.3,49.1,38,30.23,10.0,North,15.0,19.6,N/A,,Clear,10,2013-09-12 18:15:00
1:35 PM,76.5,48.6,37,30.23,10.0,NNE,12.7,17.3,N/A,,Clear,30,2013-09-12 18:35:00
1:55 PM,77.0,46.6,34,30.23,10.0,North,16.1,19.6,N/A,,Clear,10,2013-09-12 18:55:00
2:15 PM,77.0,47.7,35,30.22,10.0,North,10.4,17.3,N/A,,Clear,350,2013-09-12 19:15:00
2:35 PM,77.5,47.5,35,30.21,10.0,North,9.2,-,N/A,,Clear,10,2013-09-12 19:35:00
2:55 PM,77.5,47.3,34,30.21,10.0,NNE,9.2,-,N/A,,Clear,30,2013-09-12 19:55:00
3:15 PM,78.1,47.5,34,30.20,10.0,North,12.7,17.3,N/A,,Clear,10,2013-09-12 20:15:00
3:35 PM,78.1,46.6,33,30.20,10.0,NNE,8.1,-,N/A,,Clear,30,2013-09-12 20:35:00
3:55 PM,78.3,46.2,32,30.20,10.0,North,10.4,18.4,N/A,,Clear,350,2013-09-12 20:55:00
4:15 PM,77.9,46.6,33,30.19,10.0,North,10.4,-,N/A,,Clear,10,2013-09-12 21:15:00
4:35 PM,78.1,46.4,33,30.18,10.0,NNE,11.5,16.1,N/A,,Clear,30,2013-09-12 21:35:00
4:55 PM,77.4,46.2,33,30.18,10.0,North,5.8,9.2,N/A,,Clear,350,2013-09-12 21:55:00
5:15 PM,77.0,46.2,34,30.18,10.0,NNE,9.2,-,N/A,,Clear,20,2013-09-12 22:15:00
5:35 PM,75.7,46.2,35,30.18,10.0,North,10.4,-,N/A,,Clear,360,2013-09-12 22:35:00
5:55 PM,76.1,46.8,35,30.18,10.0,NNW,10.4,16.1,N/A,,Clear,340,2013-09-12 22:55:00
6:15 PM,75.6,46.0,35,30.19,10.0,North,11.5,-,N/A,,Clear,350,2013-09-12 23:15:00
6:35 PM,74.5,45.5,36,30.19,10.0,North,9.2,-,N/A,,Clear,350,2013-09-12 23:35:00
6:55 PM,73.2,47.5,40,30.19,10.0,NNW,5.8,-,N/A,,Clear,340,2013-09-12 23:55:00
7:15 PM,71.6,48.6,44,30.19,10.0,North,5.8,-,N/A,,Clear,350,2013-09-13 00:15:00
7:35 PM,68.9,49.3,50,30.19,10.0,NNW,6.9,-,N/A,,Clear,340,2013-09-13 00:35:00
7:55 PM,68.0,49.5,51,30.19,10.0,North,5.8,-,N/A,,Clear,350,2013-09-13 00:55:00
8:15 PM,66.7,50.0,55,30.19,10.0,North,5.8,-,N/A,,Clear,360,2013-09-13 01:15:00
8:35 PM,66.2,50.2,56,30.20,10.0,North,4.6,-,N/A,,Clear,10,2013-09-13 01:35:00
8:55 PM,65.5,50.4,58,30.20,10.0,Calm,Calm,-,N/A,,Clear,0,2013-09-13 01:55:00
9:15 PM,65.3,50.4,58,30.20,10.0,Calm,Calm,-,N/A,,Clear,0,2013-09-13 02:15:00
9:35 PM,65.3,49.8,57,30.20,10.0,NNE,3.5,-,N/A,,Clear,30,2013-09-13 02:35:00
9:55 PM,66.6,49.1,53,30.21,10.0,Calm,Calm,-,N/A,,Clear,0,2013-09-13 02:55:00
10:15 PM,63.1,50.4,63,30.21,10.0,Calm,Calm,-,N/A,,Clear,0,2013-09-13 03:15:00
10:35 PM,61.9,51.3,68,30.21,10.0,Calm,Calm,-,N/A,,Clear,0,2013-09-13 03:35:00
10:55 PM,61.5,50.2,66,30.21,10.0,Calm,Calm,-,N/A,,Clear,0,2013-09-13 03:55:00
11:15 PM,62.8,49.6,62,30.21,10.0,North,3.5,-,N/A,,Clear,350,2013-09-13 04:15:00
11:35 PM,62.1,49.5,63,30.21,10.0,Calm,Calm,-,N/A,,Clear,0,2013-09-13 04:35:00
11:55 PM,62.1,49.5,63,30.22,10.0,North,4.6,-,N/A,,Clear,10,2013-09-13 04:55:00